FW7562 Weather Reports


Display with metric or nautical units.
time (UTC)temp
F
wind
direction
speed
MPH
gust
MPH
rain 1hr
in
rain 24hr
in
rain mn
in
humidity
%
barometer
mb
20260505173051 71 163 4.0 9.0 0.00 0.04 0.04 52 1007.7
20260505171552 72 157 5.0 10.0 0.00 0.04 0.04 49 1007.6
20260505170050 74 190 4.0 11.0 0.00 0.04 0.04 48 1007.3
20260505164549 73 158 6.0 11.0 0.00 0.04 0.04 49 1007.4
20260505163048 73 215 6.0 11.0 0.00 0.04 0.04 48 1007.4
20260505161549 73 225 5.0 11.0 0.00 0.04 0.04 49 1007.6
20260505153048 74 153 7.0 12.0 0.00 0.04 0.04 48 1007.8
20260505151541 73 207 6.0 14.0 0.00 0.04 0.04 48 1007.8
20260505124513 61 146 7.0 10.0 0.01 0.04 0.04 67 1009.1
20260505123015 60 151 7.0 14.0 0.04 0.04 0.04 68 1008.8
20260505121511 59 155 5.0 8.0 0.04 0.04 0.04 70 1008.7
20260505120017 58 147 6.0 12.0 0.04 0.04 0.04 72 1008.8
20260505114508 58 155 6.0 11.0 0.03 0.03 0.03 75 1008.5
20260505113006 60 152 6.0 9.0 0.00 0.00 0.00 68 1009.5
20260505111504 60 154 4.0 9.0 0.00 0.00 0.00 65 1009.2
20260505110114 60 168 4.0 9.0 0.00 0.00 0.00 64 1008.9
20260505101556 60 167 5.0 10.0 0.00 0.00 0.00 63 1008.6
20260505100057 59 163 5.0 10.0 0.00 0.00 0.00 63 1008.5
20260505094554 59 132 6.0 11.0 0.00 0.00 0.00 63 1008.1
20260505093053 59 153 5.0 10.0 0.00 0.00 0.00 62 1008.1
20260505091616 59 163 5.0 9.0 0.00 0.00 0.00 61 1007.9
20260505090109 60 114 5.0 9.0 0.00 0.00 0.00 61 1007.7
20260505084605 60 169 5.0 9.0 0.00 0.00 0.00 61 1007.8
20260505083103 59 90 4.0 8.0 0.00 0.00 0.00 61 1008.0
20260505081557 59 150 2.0 8.0 0.00 0.00 0.00 60 1007.8
20260505080057 60 142 3.0 10.0 0.00 0.00 0.00 60 1008.0
20260505074544 59 161 5.0 9.0 0.00 0.00 0.00 59 1008.2
20260505073052 59 170 3.0 5.0 0.00 0.00 0.00 59 1008.0
20260505071549 60 141 4.0 8.0 0.00 0.00 0.00 58 1008.2
20260505070044 60 157 5.0 9.0 0.00 0.00 0.00 58 1008.1
20260505064538 60 113 6.0 9.0 0.00 0.00 0.00 57 1008.1
20260505063040 60 151 5.0 11.0 0.00 0.00 0.00 56 1008.4
20260505061536 60 161 5.0 13.0 0.00 0.00 0.00 56 1008.3
20260505060053 60 173 6.0 12.0 0.00 0.00 0.00 56 1008.3
20260505054533 60 162 6.0 10.0 0.00 0.00 0.00 55 1008.2
20260505053034 60 163 6.0 9.0 0.00 0.00 0.00 55 1008.2
20260505051532 60 163 5.0 13.0 0.00 0.00 0.00 55 1008.5
20260505050128 60 150 4.0 8.0 0.00 0.00 0.00 55 1008.5
20260505041522 61 130 4.0 7.0 0.00 0.00 0.00 54 1008.5
20260505040022 61 157 5.0 9.0 0.00 0.00 0.00 53 1008.3
20260505034516 61 168 5.0 11.0 0.00 0.00 0.00 53 1008.2
20260505033018 61 166 6.0 10.0 0.00 0.00 0.00 53 1008.5
20260505031516 62 158 6.0 13.0 0.00 0.00 0.00 52 1008.5
20260505030014 62 133 7.0 12.0 0.00 0.00 0.00 51 1008.3
20260505024513 62 147 5.0 12.0 0.00 0.00 0.00 51 1008.4
20260505023013 62 160 6.0 14.0 0.00 0.00 0.00 50 1008.8
20260505021513 63 121 6.0 12.0 0.00 0.00 0.00 49 1008.8
20260505020012 63 188 6.0 13.0 0.00 0.00 0.00 48 1008.6
20260505014520 63 146 5.0 11.0 0.00 0.00 0.00 48 1008.5
20260505013010 63 144 5.0 14.0 0.00 0.00 0.00 47 1008.6
20260505011510 64 151 5.0 8.0 0.00 0.00 0.00 47 1008.4
20260505010009 63 130 4.0 9.0 0.00 0.00 0.00 47 1008.2
20260505004509 64 157 4.0 10.0 0.00 0.00 0.00 47 1008.4
20260505003008 64 163 5.0 10.0 0.00 0.00 0.00 46 1008.3
20260505001508 65 139 5.0 11.0 0.00 0.00 0.00 45 1008.0
20260505000010 65 110 4.0 9.0 0.00 0.00 0.00 44 1008.0
20260504234506 66 148 5.0 10.0 0.00 0.00 0.00 43 1008.1
20260504233006 66 185 4.0 13.0 0.00 0.00 0.00 43 1007.8
20260504231505 67 150 6.0 14.0 0.00 0.00 0.00 41 1007.9
20260504230004 68 159 3.0 8.0 0.00 0.00 0.00 40 1007.9
20260504224510 68 147 4.0 9.0 0.00 0.00 0.00 40 1007.8
20260504223003 68 183 4.0 10.0 0.00 0.00 0.00 39 1007.9
20260504221502 68 145 4.0 11.0 0.00 0.00 0.00 39 1008.0
20260504220003 69 169 4.0 9.0 0.00 0.00 0.00 37 1007.9
20260504214600 69 156 5.0 9.0 0.00 0.00 0.00 38 1008.0
20260504213109 70 233 3.0 8.0 0.00 0.00 0.00 34 1008.0
20260504211651 69 153 3.0 11.0 0.00 0.00 0.00 37 1008.0
20260504210056 69 152 4.0 9.0 0.00 0.00 0.00 37 1008.2
20260504204601 69 167 5.0 9.0 0.00 0.00 0.00 37 1008.5
20260504203057 70 105 4.0 9.0 0.00 0.00 0.00 37 1008.5
20260504201557 70 190 4.0 9.0 0.00 0.00 0.00 35 1008.9
20260504200052 70 203 2.0 8.0 0.00 0.00 0.00 38 1009.1
20260504194554 69 231 4.0 11.0 0.00 0.00 0.00 37 1009.1
20260504193047 69 171 4.0 8.0 0.00 0.00 0.00 37 1009.3
20260504191606 67 162 4.0 10.0 0.00 0.00 0.00 41 1009.5
20260504190052 68 206 2.0 9.0 0.00 0.00 0.00 38 1009.5
20260504184549 69 163 4.0 7.0 0.00 0.00 0.00 40 1009.8
20260504183041 68 147 5.0 8.0 0.00 0.00 0.00 38 1009.9
20260504181540 68 139 6.0 11.0 0.00 0.00 0.00 40 1009.7
20260504180038 66 148 7.0 12.0 0.00 0.00 0.00 40 1009.9
20260504174540 65 168 3.0 11.0 0.00 0.00 0.00 42 1010.3